This demonstration page uses our WeatherBlox Daily Observations layout. Learn more.

Left ArrowRight Arrow

41.55636, -103.73856

Hourly Observations for January 23, 2022

Temp ( °F °C ) Dew Point ( °F °C ) Humidity (%) Winds ( mph kmh ) Pressure ( in mb ) Visibility ( mi km ) Precip ( " mm )
12:58 am 00:58 Mostly Cloudy 33 0.7 21 -6.2 60 60 WNW 14 22 30.24 1024 10 16 0.00 0.00
1:58 am 01:58 Clear 32 0.1 21 -6.3 62 62 WNW 15 24 30.23 1024 10 16 0.00 0.00
2:58 am 02:58 Mostly Cloudy 33 0.6 20 -6.4 60 60 WNW 14 22 30.22 1024 10 16 0.00 0.00
3:58 am 03:58 Mostly Cloudy 33 0.8 20 -6.5 59 59 WNW 14 22 30.20 1023 10 16 0.00 0.00
4:58 am 04:58 Mostly Cloudy 34 1.1 20 -6.6 57 57 WNW 17 28 30.19 1022 10 16 0.00 0.00
5:58 am 05:58 Mostly Cloudy 35 1.4 19 -7.4 52 52 WNW 21 33 30.18 1022 10 16 0.00 0.00
6:58 am 06:58 Mostly Cloudy 34 1 18 -7.8 52 52 WNW 21 33 30.19 1023 10 16 0.00 0.00
7:58 am 07:58 Sunny 35 1.7 17 -8.2 48 48 WNW 20 31 30.19 1023 10 16 0.00 0.00
8:58 am 08:58 Sunny 39 3.8 17 -8.6 40 40 WNW 21 33 30.18 1022 10 16 0.00 0.00
9:58 am 09:58 Sunny 42 5.3 16 -8.7 36 36 WNW 20 31 30.16 1021 10 16 0.00 0.00
10:58 am 10:58 Sunny 44 6.7 17 -8.6 33 33 W 22 35 30.14 1021 10 16 0.00 0.00
11:58 am 11:58 Sunny 46 8 16 -9 29 29 WNW 24 39 30.08 1019 10 16 0.00 0.00
12:58 pm 12:58 Sunny 48 9 17 -8.6 28 28 W 16 26 30.02 1017 10 16 0.00 0.00
1:58 pm 13:58 Sunny 49 9.7 19 -7.4 29 29 WNW 16 26 30.00 1016 10 16 0.00 0.00
2:58 pm 14:58 Sunny 49 9.2 20 -6.8 32 32 WNW 14 22 29.99 1016 10 16 0.00 0.00
3:58 pm 15:58 Sunny 47 8.1 21 -6.1 36 36 W 16 26 29.97 1015 10 16 0.00 0.00
4:58 pm 16:58 Sunny 40 4.5 22 -5.8 48 48 W 9 15 29.98 1015 10 16 0.00 0.00
5:58 pm 17:58 Clear 36 2.1 22 -5.5 58 58 W 14 22 30.00 1016 10 16 0.00 0.00
6:58 pm 18:58 Clear 36 2 22 -5.7 57 57 W 15 24 29.99 1016 10 16 0.00 0.00
7:58 pm 19:58 Clear 35 1.9 22 -5.4 59 59 W 13 20 29.98 1015 10 16 0.00 0.00
8:58 pm 20:58 Clear 36 2 22 -5.5 58 58 WNW 12 19 29.96 1014 10 16 0.00 0.00
9:58 pm 21:58 Clear 35 1.6 22 -5.4 60 60 W 9 15 29.94 1014 10 16 0.00 0.00
10:58 pm 22:58 Mostly Cloudy 36 2.4 21 -5.9 55 55 W 12 19 29.94 1014 10 16 0.00 0.00
11:58 pm 23:58 Mostly Clear 34 1 22 -5.6 62 62 W 12 19 29.91 1013 10 16 0.00 0.00

Powered by AerisWeather